Tracking 19254 objects as of 19-Oct-2018
HD Live streaming from Space Station
objects crossing your sky now

ICESAT-2

Track ICESAT-2 now!
10-day predictions


NORAD ID: 43613
Int'l Code: 2018-070A
Perigee: 486.1 km
Apogee: 490.2 km
Inclination: 92.0 °
Period: 94.2 minutes
Semi major axis: 6859 km
RCS: Unknown
Launch date: September 15, 2018
Source: United States (US)
Launch site: AIR FORCE WESTERN TEST RANGE (AFWTR)
aabbcc
Your satellite tracking list
Your tracking list is empty




NASA's NSSDC Master Catalog

Two Line Element Set (TLE):
1 43613U 18070A   18292.89573404  .00000509  00000-0  18299-4 0  9992
2 43613  92.0033 257.9794 0003020  90.5618 269.5978 15.28264358  5255
Source of the keplerian elements: AFSPC